Terminal Aerodrome Forecast
Issued by NWS

Home | Current Version | Previous Version | Text Only | Print | Product List | Glossary On
Versions: 1 2 3 4 5 6 7 8 9 10 11 12 13 14 15 16 17 18 19 20 21 22 23 24 25
000
FTUS46 KOTX 020304 AAA
TAFCOE
TAF AMD
KCOE 020304Z 0203/0224 18012G16KT P6SM FEW100 BKN200
     FM022000 35006KT P6SM VCTS SCT100CB OVC150
      AMD LTD TO CLD VIS AND WIND=

USA.gov is the U.S. government's official web portal to all federal, state and local government web resources and services.